QPF
0.00 0.00 0.00 0.00 0.00 0.00 0.00 0.00 0.00 0.00 0.00 0.00 0.00 0.00 0.00 0.00 0.00 0.00 0.00 0.00 0.00 0.00 0.00 0.00 0.00 0.00 0.00 0.00 0.00 0.00 0.00 0.00 0.00 0.00 0.00 0.00 0.00 0.00 0.00 0.00 0.00 0.00 0.00 0.00
0.00 0.00 0.00 0.00 0.00 0.00 0.00 0.00 0.00 0.00 0.00 0.00 0.00 0.00 0.00 0.00 0.00 0.00 0.00 0.00 0.00 0.00 0.00 0.00 0.01 0.01 0.01 0.01 0.01 0.01 0.00 0.00 0.00 0.00 0.00 0.00 0.00 0.00 0.00 0.00 0.00 0.00 0.00 0.00
0.00 0.00 0.00 0.00 0.00 0.00 0.00 0.00 0.00 0.00 0.00 0.00 0.00 0.00 0.00 0.01 0.01 0.01 0.01 0.01 0.01 0.01 0.01 0.00 0.01 0.01 0.01 0.01 0.01 0.01 0.01 0.01 0.01 0.01 0.00 0.00 0.00 0.00 0.00 0.00 0.00 0.00 0.00 0.00
0.00 0.00 0.01 0.00 0.00 0.00 0.00 0.00 0.00 0.00 0.00 0.00 0.01 0.01 0.01 0.01 0.02 0.02 0.02 0.02 0.02 0.02 0.01 0.01 0.01 0.01 0.01 0.02 0.02 0.02 0.02 0.02 0.02 0.01 0.01 0.00 0.00 0.00 0.00 0.00 0.00 0.00 0.00 0.00
0.00 0.01 0.00 0.00 0.00 0.00 0.01 0.01 0.00 0.00 0.00 0.00 0.00 0.01 0.01 0.02 0.02 0.02 0.02 0.02 0.02 0.03 0.02 0.02 0.02 0.01 0.02 0.02 0.02 0.02 0.02 0.03 0.03 0.02 0.02 0.01 0.00 0.00 0.00 0.00 0.00 0.00 0.00 0.00
0.01 0.02 0.01 0.00 0.00 0.00 0.01 0.03 0.00 0.00 0.00 0.00 0.01 0.03 0.02 0.02 0.02 0.02 0.02 0.02 0.03 0.02 0.02 0.02 0.02 0.02 0.02 0.02 0.02 0.02 0.03 0.03 0.03 0.03 0.02 0.02 0.01 0.01 0.01 0.01 0.01 0.01 0.01 0.01
0.02 0.02 0.00 0.00 0.00 0.00 0.03 0.03 0.00 0.00 0.00 0.01 0.01 0.02 0.02 0.02 0.02 0.02 0.02 0.02 0.02 0.02 0.02 0.02 0.02 0.02 0.03 0.03 0.04 0.05 0.04 0.04 0.03 0.02 0.02 0.02 0.01 0.01 0.01 0.01 0.01 0.01 0.01 0.01
0.02 0.02 0.01 0.00 0.00 0.01 0.02 0.01 0.00 0.00 0.01 0.01 0.01 0.01 0.01 0.01 0.01 0.01 0.02 0.03 0.03 0.02 0.02 0.03 0.03 0.02 0.03 0.03 0.03 0.04 0.04 0.03 0.03 0.02 0.02 0.02 0.02 0.02 0.02 0.02 0.01 0.01 0.01 0.01
0.01 0.01 0.00 0.00 0.00 0.00 0.01 0.01 0.01 0.01 0.01 0.01 0.01 0.01 0.01 0.01 0.01 0.01 0.01 0.02 0.02 0.02 0.03 0.03 0.03 0.04 0.04 0.04 0.04 0.04 0.03 0.03 0.03 0.03 0.03 0.02 0.02 0.02 0.02 0.02 0.02 0.02 0.01 0.01
0.01 0.00 0.00 0.00 0.00 0.01 0.00 0.01 0.01 0.01 0.02 0.02 0.01 0.01 0.01 0.01 0.01 0.00 0.00 0.01 0.01 0.01 0.02 0.02 0.02 0.02 0.02 0.02 0.03 0.04 0.03 0.03 0.03 0.02 0.02 0.02 0.02 0.02 0.02 0.03 0.02 0.01 0.01 0.01
0.01 0.00 0.00 0.00 0.00 0.01 0.01 0.02 0.02 0.02 0.02 0.03 0.02 0.01 0.01 0.01 0.00 0.00 0.00 0.00 0.00 0.00 0.01 0.01 0.01 0.01 0.01 0.01 0.01 0.01 0.01 0.01 0.01 0.01 0.01 0.01 0.01 0.01 0.01 0.01 0.01 0.01 0.01 0.01
0.01 0.01 0.01 0.01 0.01 0.01 0.03 0.03 0.04 0.04 0.04 0.03 0.02 0.01 0.01 0.01 0.00 0.00 0.00 0.00 0.00 0.00 0.00 0.01 0.01 0.01 0.01 0.01 0.01 0.01 0.01 0.01 0.00 0.00 0.00 0.00 0.00 0.00 0.00 0.00 0.00 0.00 0.01 0.00
0.01 0.00 0.01 0.01 0.02 0.03 0.04 0.06 0.08 0.07 0.05 0.04 0.03 0.02 0.01 0.01 0.00 0.00 0.00 0.00 0.00 0.00 0.00 0.00 0.00 0.00 0.00 0.00 0.00 0.00 0.00 0.00 0.00 0.00 0.00 0.00 0.00 0.00 0.00 0.00 0.00 0.00 0.00 0.00
0.01 0.01 0.01 0.02 0.03 0.05 0.07 0.10 0.10 0.08 0.06 0.04 0.03 0.02 0.01 0.01 0.00 0.00 0.00 0.00 0.00 0.00 0.00 0.00 0.00 0.00 0.00 0.00 0.00 0.00 0.00 0.00 0.00 0.00 0.00 0.00 0.00 0.00 0.00 0.00 0.00 0.00 0.00 0.00
0.01 0.01 0.02 0.04 0.05 0.06 0.07 0.08 0.07 0.06 0.04 0.03 0.01 0.01 0.01 0.01 0.00 0.00 0.00 0.00 0.00 0.00 0.00 0.00 0.00 0.00 0.00 0.00 0.00 0.00 0.00 0.00 0.00 0.00 0.00 0.00 0.00 0.00 0.00 0.00 0.00 0.00 0.00 0.00
0.02 0.02 0.03 0.04 0.04 0.05 0.05 0.04 0.04 0.03 0.02 0.02 0.01 0.01 0.01 0.01 0.00 0.00 0.00 0.00 0.00 0.00 0.00 0.00 0.00 0.00 0.00 0.00 0.00 0.00 0.00 0.00 0.00 0.00 0.00 0.00 0.00 0.00 0.00 0.00 0.00 0.00 0.00 0.00
0.02 0.03 0.03 0.03 0.03 0.04 0.05 0.05 0.05 0.03 0.02 0.02 0.02 0.01 0.01 0.01 0.00 0.00 0.00 0.00 0.00 0.00 0.00 0.00 0.00 0.00 0.00 0.00 0.00 0.00 0.00 0.00 0.00 0.00 0.00 0.00 0.00 0.00 0.00 0.00 0.00 0.00 0.00 0.00
0.02 0.02 0.03 0.03 0.04 0.05 0.05 0.06 0.07 0.05 0.04 0.03 0.02 0.01 0.01 0.00 0.00 0.00 0.00 0.00 0.00 0.00 0.00 0.00 0.00 0.00 0.00 0.00 0.00 0.00 0.00 0.00 0.00 0.00 0.00 0.00 0.00 0.00 0.00 0.00 0.00 0.01 0.01 0.01
0.01 0.01 0.01 0.02 0.03 0.04 0.04 0.04 0.04 0.04 0.03 0.02 0.01 0.01 0.00 0.00 0.00 0.00 0.00 0.00 0.00 0.00 0.00 0.00 0.00 0.00 0.00 0.00 0.00 0.00 0.00 0.00 0.00 0.00 0.00 0.00 0.00 0.00 0.00 0.01 0.01 0.01 0.01 0.02
0.02 0.02 0.02 0.02 0.02 0.02 0.03 0.03 0.02 0.01 0.01 0.00 0.00 0.00 0.00 0.00 0.00 0.00 0.00 0.00 0.00 0.00 0.00 0.00 0.00 0.00 0.00 0.00 0.00 0.00 0.00 0.00 0.00 0.00 0.00 0.00 0.00 0.00 0.01 0.01 0.01 0.01 0.02 0.02
0.02 0.01 0.01 0.01 0.01 0.01 0.01 0.00 0.00 0.00 0.00 0.00 0.00 0.00 0.00 0.00 0.00 0.00 0.00 0.00 0.00 0.00 0.00 0.00 0.00 0.00 0.00 0.00 0.00 0.00 0.00 0.00 0.00 0.00 0.00 0.00 0.00 0.01 0.01 0.01 0.02 0.03 0.02 0.02
0.01 0.00 0.01 0.01 0.01 0.01 0.00 0.00 0.00 0.00 0.00 0.00 0.00 0.00 0.00 0.00 0.00 0.00 0.00 0.00 0.00 0.00 0.00 0.00 0.00 0.00 0.00 0.00 0.00 0.00 0.00 0.00 0.00 0.00 0.00 0.00 0.01 0.01 0.02 0.03 0.03 0.03 0.03 0.03
0.02 0.02 0.02 0.02 0.01 0.01 0.01 0.00 0.00 0.00 0.00 0.00 0.00 0.00 0.00 0.00 0.00 0.00 0.00 0.00 0.00 0.00 0.00 0.00 0.00 0.00 0.00 0.00 0.00 0.00 0.00 0.00 0.00 0.00 0.01 0.01 0.01 0.02 0.03 0.03 0.03 0.03 0.03 0.03
0.01 0.01 0.01 0.01 0.00 0.00 0.00 0.00 0.00 0.00 0.00 0.00 0.00 0.00 0.00 0.00 0.00 0.00 0.00 0.00 0.00 0.00 0.00 0.00 0.00 0.00 0.00 0.00 0.00 0.00 0.00 0.00 0.00 0.00 0.01 0.01 0.02 0.03 0.03 0.03 0.03 0.04 0.04 0.04
0.01 0.01 0.01 0.00 0.00 0.00 0.00 0.00 0.00 0.01 0.00 0.00 0.00 0.00 0.00 0.00 0.00 0.00 0.00 0.00 0.00 0.00 0.00 0.00 0.00 0.00 0.00 0.00 0.00 0.00 0.00 0.00 0.01 0.01 0.01 0.01 0.02 0.02 0.03 0.03 0.03 0.05 0.07 0.07
0.01 0.00 0.00 0.00 0.00 0.00 0.00 0.01 0.01 0.01 0.01 0.01 0.00 0.00 0.00 0.00 0.00 0.00 0.00 0.00 0.00 0.00 0.00 0.00 0.00 0.00 0.00 0.00 0.00 0.00 0.00 0.01 0.01 0.01 0.01 0.02 0.02 0.02 0.02 0.03 0.04 0.06 0.09 0.10
0.00 0.00 0.00 0.00 0.00 0.00 0.01 0.01 0.01 0.01 0.01 0.01 0.01 0.01 0.01 0.01 0.01 0.01 0.01 0.00 0.00 0.00 0.00 0.00 0.00 0.00 0.00 0.00 0.00 0.00 0.00 0.01 0.01 0.01 0.01 0.02 0.02 0.02 0.02 0.02 0.02 0.04 0.05 0.06
MSLP
1009.61 1009.72 1009.75 1009.74 1009.69 1009.61 1009.52 1009.42 1009.31 1009.19 1009.06 1008.92 1008.79 1008.67 1008.56 1008.48 1008.44 1008.43 1008.47 1008.56 1008.70 1008.88 1009.11 1009.38 1009.69 1010.03 1010.41 1010.81 1011.22 1011.64 1012.06 1012.47 1012.88 1013.29 1013.70 1014.12 1014.54 1014.96 1015.39 1015.80 1016.19 1016.54 1016.84 1017.09
1009.67 1009.74 1009.69 1009.56 1009.38 1009.19 1009.00 1008.86 1008.75 1008.70 1008.68 1008.69 1008.73 1008.76 1008.78 1008.79 1008.79 1008.78 1008.77 1008.77 1008.80 1008.87 1008.99 1009.17 1009.41 1009.70 1010.04 1010.40 1010.79 1011.18 1011.57 1011.96 1012.33 1012.71 1013.08 1013.47 1013.87 1014.28 1014.69 1015.10 1015.49 1015.85 1016.16 1016.42
1009.76 1009.79 1009.67 1009.46 1009.18 1008.89 1008.64 1008.47 1008.38 1008.39 1008.48 1008.64 1008.82 1009.00 1009.15 1009.26 1009.31 1009.30 1009.26 1009.19 1009.12 1009.09 1009.11 1009.20 1009.36 1009.58 1009.86 1010.19 1010.53 1010.89 1011.23 1011.57 1011.89 1012.21 1012.53 1012.86 1013.21 1013.58 1013.96 1014.34 1014.72 1015.07 1015.39 1015.66
1009.82 1009.83 1009.67 1009.39 1009.05 1008.71 1008.42 1008.24 1008.18 1008.26 1008.45 1008.73 1009.05 1009.37 1009.65 1009.84 1009.95 1009.96 1009.89 1009.77 1009.64 1009.52 1009.45 1009.45 1009.53 1009.69 1009.92 1010.19 1010.49 1010.79 1011.09 1011.37 1011.63 1011.88 1012.12 1012.38 1012.66 1012.96 1013.28 1013.62 1013.96 1014.30 1014.61 1014.90
1009.81 1009.79 1009.60 1009.30 1008.93 1008.56 1008.28 1008.11 1008.10 1008.24 1008.53 1008.92 1009.36 1009.80 1010.18 1010.46 1010.63 1010.67 1010.60 1010.46 1010.28 1010.11 1009.97 1009.91 1009.93 1010.02 1010.20 1010.42 1010.67 1010.93 1011.17 1011.39 1011.58 1011.76 1011.92 1012.09 1012.28 1012.50 1012.75 1013.03 1013.33 1013.64 1013.94 1014.22
1009.66 1009.62 1009.42 1009.10 1008.74 1008.40 1008.14 1008.02 1008.06 1008.28 1008.66 1009.14 1009.69 1010.22 1010.69 1011.05 1011.28 1011.36 1011.32 1011.18 1010.99 1010.78 1010.62 1010.51 1010.49 1010.55 1010.68 1010.86 1011.08 1011.29 1011.48 1011.64 1011.77 1011.87 1011.95 1012.03 1012.13 1012.26 1012.43 1012.64 1012.89 1013.16 1013.43 1013.71
1009.33 1009.27 1009.07 1008.77 1008.45 1008.15 1007.95 1007.90 1008.02 1008.32 1008.78 1009.35 1009.97 1010.59 1011.13 1011.56 1011.85 1011.98 1011.98 1011.86 1011.69 1011.49 1011.32 1011.21 1011.17 1011.21 1011.32 1011.48 1011.66 1011.84 1011.99 1012.10 1012.17 1012.20 1012.20 1012.20 1012.21 1012.25 1012.34 1012.47 1012.65 1012.87 1013.11 1013.37
1008.84 1008.76 1008.57 1008.31 1008.04 1007.83 1007.72 1007.76 1007.97 1008.35 1008.88 1009.52 1010.21 1010.88 1011.48 1011.97 1012.31 1012.49 1012.54 1012.47 1012.34 1012.17 1012.03 1011.93 1011.90 1011.95 1012.05 1012.20 1012.36 1012.51 1012.62 1012.69 1012.70 1012.67 1012.60 1012.52 1012.45 1012.40 1012.41 1012.46 1012.58 1012.74 1012.94 1013.16
1008.26 1008.15 1007.98 1007.78 1007.59 1007.48 1007.47 1007.62 1007.92 1008.39 1008.99 1009.68 1010.41 1011.12 1011.76 1012.28 1012.66 1012.90 1013.00 1012.99 1012.90 1012.79 1012.69 1012.63 1012.63 1012.69 1012.79 1012.93 1013.08 1013.21 1013.29 1013.32 1013.28 1013.19 1013.06 1012.90 1012.75 1012.63 1012.55 1012.53 1012.58 1012.68 1012.84 1013.02
1007.69 1007.58 1007.43 1007.30 1007.21 1007.20 1007.31 1007.56 1007.96 1008.50 1009.15 1009.88 1010.63 1011.35 1012.00 1012.54 1012.94 1013.21 1013.36 1013.40 1013.38 1013.32 1013.28 1013.26 1013.28 1013.36 1013.47 1013.60 1013.73 1013.83 1013.88 1013.87 1013.79 1013.64 1013.45 1013.23 1013.01 1012.81 1012.66 1012.57 1012.55 1012.60 1012.70 1012.84
1007.29 1007.17 1007.07 1007.00 1007.01 1007.11 1007.33 1007.68 1008.16 1008.76 1009.44 1010.17 1010.92 1011.62 1012.26 1012.78 1013.19 1013.48 1013.65 1013.73 1013.76 1013.75 1013.75 1013.77 1013.82 1013.90 1014.01 1014.13 1014.24 1014.30 1014.31 1014.26 1014.13 1013.93 1013.68 1013.41 1013.13 1012.87 1012.66 1012.51 1012.43 1012.42 1012.47 1012.57
1007.18 1007.08 1007.02 1007.03 1007.12 1007.32 1007.64 1008.07 1008.60 1009.23 1009.92 1010.63 1011.33 1011.99 1012.57 1013.06 1013.45 1013.72 1013.90 1014.01 1014.06 1014.09 1014.11 1014.15 1014.21 1014.29 1014.39 1014.48 1014.54 1014.57 1014.53 1014.43 1014.26 1014.02 1013.72 1013.40 1013.08 1012.77 1012.51 1012.32 1012.19 1012.13 1012.13 1012.18
1007.44 1007.36 1007.35 1007.42 1007.60 1007.88 1008.26 1008.74 1009.31 1009.93 1010.59 1011.25 1011.89 1012.47 1012.98 1013.40 1013.73 1013.97 1014.14 1014.24 1014.30 1014.34 1014.37 1014.41 1014.47 1014.53 1014.59 1014.64 1014.66 1014.64 1014.56 1014.41 1014.20 1013.92 1013.60 1013.26 1012.90 1012.57 1012.28 1012.05 1011.88 1011.78 1011.73 1011.72
1008.07 1008.03 1008.07 1008.20 1008.43 1008.76 1009.19 1009.69 1010.25 1010.84 1011.44 1012.02 1012.56 1013.04 1013.46 1013.79 1014.05 1014.24 1014.37 1014.45 1014.51 1014.54 1014.56 1014.59 1014.62 1014.65 1014.67 1014.67 1014.65 1014.57 1014.45 1014.27 1014.03 1013.74 1013.41 1013.05 1012.70 1012.36 1012.06 1011.81 1011.61 1011.46 1011.36 1011.28
1009.02 1009.02 1009.09 1009.27 1009.54 1009.90 1010.33 1010.82 1011.35 1011.88 1012.40 1012.88 1013.31 1013.68 1013.99 1014.23 1014.41 1014.54 1014.62 1014.67 1014.70 1014.72 1014.72 1014.73 1014.73 1014.72 1014.69 1014.65 1014.57 1014.46 1014.30 1014.09 1013.85 1013.56 1013.25 1012.91 1012.58 1012.26 1011.96 1011.70 1011.48 1011.29 1011.13 1010.98
1010.16 1010.19 1010.30 1010.50 1010.79 1011.16 1011.58 1012.04 1012.50 1012.96 1013.38 1013.75 1014.07 1014.33 1014.53 1014.68 1014.79 1014.85 1014.89 1014.91 1014.92 1014.91 1014.90 1014.88 1014.84 1014.80 1014.73 1014.64 1014.53 1014.39 1014.21 1014.00 1013.77 1013.51 1013.23 1012.94 1012.65 1012.36 1012.09 1011.83 1011.59 1011.36 1011.13 1010.89
1011.35 1011.41 1011.55 1011.76 1012.05 1012.40 1012.79 1013.20 1013.60 1013.96 1014.29 1014.56 1014.77 1014.93 1015.05 1015.12 1015.16 1015.18 1015.19 1015.19 1015.18 1015.16 1015.14 1015.09 1015.04 1014.96 1014.86 1014.74 1014.60 1014.44 1014.27 1014.07 1013.87 1013.65 1013.43 1013.19 1012.96 1012.72 1012.47 1012.22 1011.96 1011.68 1011.38 1011.03
1012.46 1012.54 1012.69 1012.90 1013.18 1013.50 1013.85 1014.20 1014.53 1014.81 1015.05 1015.23 1015.36 1015.44 1015.49 1015.51 1015.52 1015.52 1015.51 1015.51 1015.50 1015.49 1015.46 1015.41 1015.34 1015.25 1015.14 1015.00 1014.85 1014.68 1014.52 1014.35 1014.18 1014.01 1013.84 1013.67 1013.50 1013.30 1013.09 1012.84 1012.56 1012.23 1011.84 1011.39
1013.39 1013.47 1013.61 1013.82 1014.07 1014.36 1014.66 1014.95 1015.21 1015.44 1015.60 1015.72 1015.79 1015.82 1015.83 1015.83 1015.83 1015.84 1015.85 1015.87 1015.89 1015.89 1015.88 1015.85 1015.78 1015.69 1015.57 1015.43 1015.27 1015.12 1014.96 1014.81 1014.68 1014.56 1014.44 1014.32 1014.19 1014.04 1013.84 1013.59 1013.28 1012.90 1012.43 1011.87
1014.10 1014.17 1014.29 1014.47 1014.69 1014.94 1015.19 1015.43 1015.64 1015.80 1015.92 1016.00 1016.03 1016.05 1016.06 1016.07 1016.09 1016.13 1016.18 1016.25 1016.31 1016.36 1016.39 1016.38 1016.34 1016.26 1016.14 1016.01 1015.85 1015.70 1015.55 1015.41 1015.30 1015.20 1015.12 1015.03 1014.93 1014.79 1014.60 1014.34 1013.99 1013.55 1013.01 1012.36
1014.59 1014.62 1014.71 1014.85 1015.03 1015.24 1015.44 1015.63 1015.80 1015.92 1016.01 1016.07 1016.10 1016.12 1016.15 1016.20 1016.27 1016.37 1016.48 1016.61 1016.74 1016.85 1016.93 1016.96 1016.96 1016.90 1016.80 1016.67 1016.52 1016.36 1016.21 1016.07 1015.96 1015.86 1015.78 1015.70 1015.59 1015.45 1015.25 1014.96 1014.58 1014.09 1013.48 1012.77
1014.88 1014.87 1014.92 1015.01 1015.14 1015.30 1015.45 1015.60 1015.73 1015.82 1015.90 1015.95 1016.00 1016.05 1016.12 1016.22 1016.35 1016.52 1016.71 1016.92 1017.12 1017.31 1017.45 1017.54 1017.58 1017.56 1017.48 1017.36 1017.20 1017.04 1016.87 1016.72 1016.58 1016.46 1016.35 1016.24 1016.11 1015.93 1015.70 1015.38 1014.96 1014.44 1013.79 1013.03
1015.02 1014.97 1014.96 1015.00 1015.07 1015.18 1015.28 1015.39 1015.48 1015.56 1015.63 1015.69 1015.76 1015.85 1015.97 1016.14 1016.34 1016.59 1016.86 1017.15 1017.43 1017.69 1017.90 1018.06 1018.14 1018.16 1018.11 1018.00 1017.84 1017.66 1017.47 1017.28 1017.10 1016.94 1016.78 1016.62 1016.44 1016.22 1015.94 1015.59 1015.14 1014.59 1013.92 1013.15
1015.07 1014.96 1014.89 1014.87 1014.89 1014.94 1015.00 1015.06 1015.13 1015.19 1015.26 1015.34 1015.44 1015.57 1015.75 1015.98 1016.25 1016.57 1016.92 1017.29 1017.64 1017.97 1018.25 1018.46 1018.60 1018.65 1018.63 1018.53 1018.38 1018.19 1017.97 1017.75 1017.52 1017.30 1017.08 1016.85 1016.61 1016.34 1016.02 1015.63 1015.16 1014.60 1013.94 1013.19
1015.05 1014.89 1014.77 1014.70 1014.66 1014.66 1014.67 1014.71 1014.75 1014.81 1014.88 1014.98 1015.11 1015.29 1015.51 1015.80 1016.13 1016.51 1016.92 1017.35 1017.76 1018.14 1018.47 1018.74 1018.92 1019.01 1019.02 1018.94 1018.80 1018.60 1018.36 1018.10 1017.83 1017.56 1017.28 1016.99 1016.69 1016.37 1016.00 1015.59 1015.11 1014.55 1013.92 1013.22
1015.00 1014.80 1014.64 1014.52 1014.44 1014.40 1014.39 1014.40 1014.43 1014.49 1014.57 1014.70 1014.86 1015.07 1015.34 1015.67 1016.04 1016.46 1016.91 1017.37 1017.81 1018.23 1018.60 1018.89 1019.11 1019.23 1019.27 1019.22 1019.09 1018.90 1018.66 1018.38 1018.08 1017.76 1017.44 1017.11 1016.76 1016.39 1016.00 1015.57 1015.09 1014.55 1013.96 1013.32
1014.95 1014.73 1014.54 1014.39 1014.29 1014.23 1014.20 1014.21 1014.25 1014.32 1014.43 1014.58 1014.78 1015.02 1015.32 1015.67 1016.06 1016.49 1016.95 1017.41 1017.86 1018.29 1018.66 1018.97 1019.20 1019.35 1019.41 1019.38 1019.28 1019.10 1018.88 1018.60 1018.30 1017.97 1017.62 1017.26 1016.89 1016.50 1016.09 1015.65 1015.18 1014.68 1014.13 1013.55
Thickness
5766 5770 5769 5766 5764 5762 5755 5756 5752 5757 5761 5764 5764 5763 5764 5766 5766 5765 5765 5764 5763 5763 5762 5761 5760 5758 5757 5755 5753 5749 5744 5740 5737 5733 5730 5725 5721 5716 5712 5708 5705 5701 5697 5694
5753 5763 5764 5758 5762 5761 5758 5758 5757 5757 5757 5763 5760 5759 5757 5758 5759 5757 5757 5759 5760 5759 5759 5757 5756 5755 5754 5752 5750 5746 5741 5739 5736 5731 5727 5722 5718 5714 5709 5705 5701 5698 5694 5692
5746 5756 5751 5744 5759 5759 5758 5760 5755 5750 5754 5755 5749 5745 5744 5747 5749 5749 5750 5751 5753 5754 5753 5753 5753 5753 5750 5748 5746 5741 5736 5734 5731 5727 5723 5718 5715 5710 5705 5701 5698 5694 5691 5689
5742 5737 5719 5751 5765 5761 5755 5755 5756 5752 5750 5747 5740 5736 5736 5738 5738 5739 5741 5742 5744 5746 5746 5747 5747 5746 5744 5742 5737 5733 5729 5727 5725 5721 5717 5713 5709 5705 5701 5698 5695 5691 5688 5686
5734 5728 5733 5748 5753 5752 5745 5744 5751 5745 5742 5739 5737 5734 5728 5728 5729 5728 5730 5732 5733 5735 5736 5736 5736 5736 5734 5730 5726 5722 5720 5718 5717 5713 5709 5705 5702 5698 5695 5692 5689 5686 5684 5682
5725 5715 5714 5737 5749 5753 5744 5731 5744 5741 5736 5734 5731 5725 5715 5717 5719 5719 5718 5720 5721 5722 5721 5719 5719 5721 5719 5716 5713 5709 5709 5708 5706 5703 5700 5696 5693 5691 5688 5685 5682 5680 5678 5676
5718 5714 5728 5740 5745 5742 5721 5722 5736 5736 5732 5730 5723 5718 5710 5709 5706 5706 5706 5705 5705 5705 5704 5702 5702 5703 5701 5698 5696 5696 5697 5696 5693 5690 5687 5685 5683 5680 5677 5675 5673 5671 5669 5669
5714 5706 5713 5734 5733 5728 5724 5730 5730 5727 5725 5719 5711 5705 5701 5698 5695 5695 5694 5692 5691 5689 5686 5686 5687 5688 5685 5682 5681 5682 5681 5680 5678 5676 5675 5675 5672 5669 5666 5664 5662 5660 5659 5658
5720 5717 5722 5729 5728 5727 5728 5723 5721 5719 5715 5708 5701 5695 5690 5686 5684 5683 5681 5680 5678 5675 5673 5672 5673 5673 5671 5668 5668 5667 5667 5666 5664 5664 5662 5661 5659 5658 5656 5654 5653 5651 5649 5648
5711 5717 5718 5720 5721 5721 5721 5718 5716 5712 5705 5700 5692 5686 5681 5677 5674 5672 5670 5669 5668 5665 5662 5660 5660 5659 5657 5656 5655 5655 5655 5654 5652 5651 5650 5648 5647 5647 5646 5644 5641 5638 5636 5635
5703 5708 5710 5711 5710 5711 5710 5709 5705 5700 5695 5689 5683 5677 5672 5667 5664 5661 5659 5658 5656 5653 5650 5649 5648 5647 5646 5645 5645 5644 5643 5642 5642 5641 5640 5636 5636 5633 5632 5628 5625 5620 5620 5618
5695 5698 5697 5697 5701 5702 5697 5693 5690 5685 5679 5675 5671 5665 5661 5657 5654 5651 5649 5647 5645 5643 5641 5639 5638 5636 5635 5634 5633 5632 5632 5631 5632 5631 5628 5627 5625 5623 5619 5614 5609 5604 5599 5596
5687 5691 5691 5690 5691 5690 5685 5681 5676 5671 5665 5660 5656 5653 5649 5645 5643 5641 5638 5636 5634 5632 5630 5629 5627 5626 5624 5623 5621 5619 5618 5617 5617 5616 5615 5613 5611 5609 5607 5604 5598 5593 5588 5582
5680 5681 5678 5677 5676 5676 5672 5667 5663 5657 5651 5647 5643 5639 5636 5632 5630 5629 5627 5626 5624 5622 5621 5619 5617 5615 5613 5611 5609 5607 5606 5605 5603 5602 5600 5599 5597 5595 5592 5590 5587 5584 5578 5570
5670 5672 5668 5664 5662 5659 5656 5651 5645 5639 5635 5631 5629 5626 5623 5620 5618 5617 5616 5615 5614 5613 5611 5609 5606 5603 5601 5599 5597 5595 5594 5593 5588 5586 5586 5585 5583 5580 5577 5573 5569 5566 5563 5558
5657 5657 5654 5649 5645 5642 5638 5634 5628 5623 5620 5617 5614 5612 5612 5610 5609 5607 5606 5605 5603 5602 5599 5596 5593 5591 5589 5586 5584 5584 5582 5575 5571 5571 5571 5569 5566 5562 5558 5554 5550 5546 5542 5538
5642 5638 5635 5631 5627 5624 5620 5617 5613 5609 5607 5604 5602 5602 5600 5599 5598 5596 5595 5594 5592 5590 5587 5584 5581 5579 5576 5572 5569 5570 5568 5565 5558 5557 5555 5550 5545 5541 5537 5533 5529 5525 5521 5516
5630 5626 5622 5618 5615 5610 5607 5604 5600 5597 5595 5593 5593 5592 5590 5588 5587 5585 5584 5583 5581 5579 5576 5572 5567 5565 5561 5557 5553 5552 5551 5549 5544 5540 5535 5530 5524 5521 5518 5514 5510 5505 5502 5499
5615 5612 5608 5604 5602 5598 5594 5592 5590 5589 5587 5586 5584 5582 5581 5579 5578 5576 5574 5572 5570 5567 5562 5558 5548 5550 5547 5541 5534 5536 5534 5531 5527 5522 5517 5510 5508 5505 5500 5495 5491 5488 5484 5482
5600 5597 5595 5592 5590 5588 5585 5583 5582 5580 5579 5577 5576 5574 5572 5570 5568 5566 5563 5561 5558 5553 5547 5541 5539 5535 5530 5525 5517 5520 5517 5513 5509 5504 5499 5495 5490 5486 5481 5478 5474 5471 5469 5467
5589 5587 5586 5585 5582 5581 5579 5577 5575 5573 5571 5570 5567 5564 5562 5559 5557 5554 5552 5550 5541 5534 5531 5525 5523 5518 5514 5507 5504 5506 5502 5496 5491 5487 5482 5478 5474 5470 5466 5463 5460 5458 5457 5455
5578 5577 5576 5575 5573 5571 5569 5568 5566 5564 5562 5559 5557 5555 5552 5548 5546 5543 5537 5532 5526 5515 5516 5515 5508 5497 5493 5490 5493 5490 5485 5479 5475 5471 5468 5463 5459 5455 5453 5450 5449 5448 5446 5444
5568 5566 5564 5563 5562 5560 5559 5558 5556 5553 5550 5548 5545 5542 5539 5535 5534 5531 5526 5518 5512 5502 5502 5495 5484 5479 5475 5481 5478 5473 5469 5464 5461 5458 5454 5449 5446 5444 5442 5440 5439 5438 5437 5436
5556 5555 5554 5554 5553 5551 5548 5547 5545 5542 5539 5536 5534 5530 5527 5525 5521 5517 5509 5497 5491 5488 5485 5474 5468 5465 5465 5468 5464 5460 5456 5451 5448 5445 5441 5439 5436 5435 5433 5432 5432 5431 5431 5430
5545 5544 5544 5542 5542 5542 5538 5536 5534 5531 5529 5526 5523 5518 5516 5512 5508 5503 5495 5486 5477 5475 5473 5464 5458 5456 5458 5456 5452 5448 5444 5439 5435 5433 5432 5430 5428 5427 5426 5426 5426 5426 5426 5427
5534 5534 5532 5529 5529 5527 5528 5526 5524 5521 5518 5514 5511 5507 5503 5499 5493 5488 5482 5476 5469 5463 5461 5458 5454 5450 5448 5444 5440 5436 5434 5431 5428 5426 5423 5422 5421 5420 5420 5420 5421 5422 5423 5424
5524 5524 5521 5521 5520 5518 5516 5513 5510 5508 5506 5502 5498 5495 5491 5486 5482 5476 5470 5465 5460 5455 5452 5448 5444 5441 5438 5434 5431 5428 5425 5423 5420 5419 5417 5416 5415 5415 5416 5417 5418 5419 5421 5422